Theta_e
318 318 318 319 320 321 310 309 307 306 306 308 306 304 302 303 306 307 310 314 319 320 320 318 317 316 315 313 312 312 311 309 308 308 308 308 307 307 308 308 309 309 309
318 318 318 320 323 320 309 308 304 303 302 305 303 301 298 298 300 301 303 307 314 315 315 315 315 313 312 310 310 309 310 308 307 306 306 306 306 306 306 307 307 308 308
318 319 319 321 321 310 310 304 300 300 301 303 300 297 296 294 295 295 296 296 299 309 310 311 310 310 309 309 308 308 307 306 305 305 304 304 305 305 305 306 307 307 307
320 319 319 317 314 309 308 302 300 298 298 299 298 296 294 294 292 292 292 292 293 293 303 306 306 306 307 307 307 306 305 304 304 304 303 303 303 304 304 305 305 305 305
321 320 318 315 310 308 307 302 299 299 296 296 296 294 293 292 291 290 288 288 289 289 290 299 300 301 302 304 304 304 303 303 303 302 301 302 302 302 303 303 303 304 304
321 318 314 312 308 307 305 299 296 296 296 297 295 293 292 291 289 287 286 286 286 286 285 285 286 290 297 300 301 302 302 301 301 300 300 300 301 301 302 302 302 302 303
318 315 311 308 305 305 304 298 296 295 294 296 293 292 291 290 288 286 286 285 284 284 284 284 283 282 283 294 297 298 299 300 299 299 299 299 300 300 300 301 301 302 302
311 309 307 304 303 302 299 297 295 292 294 295 292 291 286 288 288 287 287 285 284 284 283 282 281 281 281 283 289 294 296 297 297 297 297 298 298 298 299 300 300 299 300
302 304 304 302 302 302 298 296 295 293 292 292 293 293 287 286 286 288 286 285 283 283 282 282 282 282 282 283 285 287 292 293 294 295 295 296 296 297 297 298 299 299 298
297 298 298 299 298 299 297 297 296 295 294 289 291 291 291 291 286 282 286 284 284 282 282 282 282 281 281 281 284 287 288 290 291 291 292 293 294 295 295 296 296 296 296
295 295 295 295 294 294 294 294 293 293 293 291 290 290 289 289 289 285 282 282 285 283 283 282 281 280 281 280 281 283 287 288 289 289 289 290 291 292 293 294 294 294 295
292 292 292 292 292 292 291 291 290 290 289 289 289 289 288 287 285 286 282 282 282 282 282 282 281 280 280 280 283 283 285 286 287 287 287 288 288 289 290 291 291 292 292
290 290 290 290 290 290 290 290 289 288 288 287 287 286 286 285 285 284 282 280 280 281 281 281 281 280 281 280 281 281 282 284 285 286 286 286 286 287 287 288 288 288 288
289 290 289 290 289 289 289 288 287 287 287 286 284 283 282 282 282 282 281 279 277 278 279 278 279 279 280 280 280 280 277 281 283 284 284 284 284 285 285 285 286 286 286
289 289 289 288 288 288 288 288 286 285 284 283 282 282 280 280 281 280 280 279 278 275 275 276 276 278 279 278 279 275 276 279 281 281 281 282 283 283 283 283 283 283 284
288 287 287 287 286 286 286 286 284 283 281 281 281 280 280 280 279 279 279 278 278 276 274 276 276 276 276 277 278 275 275 277 277 278 279 280 281 281 281 281 281 281 282
287 286 286 286 285 284 284 282 282 282 280 280 280 279 278 278 277 277 278 277 277 276 274 274 276 276 275 274 274 274 274 273 273 276 277 279 279 279 279 279 279 279 280
286 286 285 285 284 283 282 281 281 280 279 279 279 278 277 278 276 276 276 276 276 276 275 273 275 275 274 274 273 272 273 274 272 274 277 277 277 277 277 277 277 277 278
285 285 284 282 281 281 281 281 280 279 279 278 278 277 277 277 276 276 275 275 275 276 275 274 274 274 273 273 271 271 271 270 272 274 275 274 275 275 275 276 276 276 275
283 283 282 281 281 281 280 280 279 278 278 278 278 277 276 276 276 275 275 275 276 275 275 274 273 272 271 272 270 268 268 269 269 271 271 272 273 273 273 274 274 273 273
282 281 281 280 280 280 279 278 278 278 277 277 277 277 277 278 279 278 276 276 276 275 273 272 271 270 269 269 268 269 268 268 268 268 266 266 267 266 266 269 270 271 273
280 280 280 279 279 280 282 282 279 277 277 277 276 277 277 277 278 278 279 279 278 275 273 271 270 268 269 269 269 268 267 265 262 266 265 264 265 264 265 265 269 272 274
279 279 279 280 280 280 283 282 280 278 277 276 276 276 276 276 276 276 277 277 276 276 275 272 269 269 268 269 268 267 266 265 263 265 263 260 263 262 264 265 270 272 274
279 279 279 279 279 280 283 282 280 277 277 276 276 276 275 275 276 276 275 274 273 272 272 272 272 270 270 270 268 267 265 261 261 261 262 255 259 260 263 264 269 271 272
279 279 279 279 279 280 283 282 279 277 276 275 276 276 275 275 278 278 274 272 271 271 273 274 273 273 273 272 269 264 255 251 255 257 261 259 260 260 261 261 263 268 270
278 278 278 278 278 278 282 281 279 277 275 275 276 276 277 276 277 277 273 270 268 269 268 266 265 265 266 264 267 264 261 250 251 249 258 257 255 258 255 256 260 262 262
Wind_Speed
7 6 5 4 4 4 4 4 5 5 7 7 7 8 8 8 10 6 6 14 14 15 15 14 15 14 14 13 14 14 15 16 16 17 17 17 17 17 18 18 18 18 19
7 7 6 6 6 5 4 6 6 6 6 7 8 7 8 7 9 9 7 9 17 15 15 15 14 13 13 12 12 13 15 15 16 15 15 16 17 17 19 17 19 20 19
7 7 6 5 6 5 8 7 7 7 7 6 9 8 7 8 8 9 8 7 8 17 17 15 15 14 13 13 13 13 13 13 13 15 16 16 17 19 19 20 19 19 20
8 6 5 4 6 7 7 7 7 7 6 6 6 6 6 7 9 9 8 7 7 7 12 16 16 15 14 13 13 12 13 14 14 15 15 16 17 18 18 19 20 20 20
10 7 6 5 8 8 7 7 5 6 7 7 7 7 7 7 7 8 9 9 9 8 6 15 17 16 15 14 14 13 12 13 15 15 15 16 17 18 19 19 20 20 21
9 7 5 7 8 7 7 7 8 5 6 8 9 8 7 6 6 7 7 7 6 7 5 7 6 8 16 15 14 14 13 13 14 15 15 16 18 18 18 19 20 21 21
9 9 6 7 7 8 9 10 9 11 5 9 8 8 7 7 7 6 5 5 6 6 6 6 5 4 6 16 15 14 14 13 14 15 16 16 16 18 18 20 21 22 21
8 9 10 8 8 9 9 10 12 6 4 4 4 4 4 3 5 5 3 4 5 4 5 6 4 5 5 4 10 15 14 14 15 16 16 17 17 18 19 20 21 21 22
6 7 8 8 8 7 9 8 7 7 8 2 6 2 4 3 5 3 4 4 3 2 3 4 4 4 5 4 6 9 14 14 14 15 17 17 18 18 20 21 22 22 23
7 7 8 7 7 5 7 6 5 4 10 7 4 7 7 5 3 3 0 1 2 2 2 3 3 3 3 3 7 10 12 13 14 16 17 16 18 20 21 23 22 22 22
9 8 9 10 8 6 7 8 8 9 7 6 4 3 5 5 5 3 3 3 1 2 2 2 3 3 3 3 2 6 12 14 14 16 17 17 18 21 22 22 22 24 22
7 9 11 10 11 6 10 9 10 11 10 8 6 6 3 2 2 2 2 3 4 2 2 2 2 1 2 3 3 7 11 13 15 17 17 18 20 21 22 22 22 22 20
7 9 11 12 10 9 11 12 13 11 8 8 7 6 4 2 1 1 1 2 3 2 2 1 1 2 2 3 3 6 10 14 16 17 18 20 21 20 20 21 21 21 22
10 12 13 14 14 12 13 12 11 9 10 9 10 6 4 3 1 1 2 3 2 1 1 3 1 2 2 1 5 9 5 14 16 17 20 20 20 21 20 20 20 20 22
13 15 14 16 14 14 15 12 10 10 10 8 7 6 5 3 4 4 4 3 2 3 2 2 2 0 2 4 6 4 5 12 16 17 20 19 20 20 18 18 20 20 21
16 19 16 15 13 13 12 13 10 10 10 6 6 7 5 4 5 5 5 5 5 2 2 1 1 2 3 3 6 4 5 13 14 16 19 19 19 17 16 18 20 20 20
16 17 18 15 14 13 12 13 11 9 9 9 7 8 7 6 5 5 4 4 4 3 2 1 0 1 1 2 4 4 5 7 5 17 17 19 18 16 16 19 19 19 19
17 15 15 16 15 13 11 10 10 8 9 9 8 9 7 6 6 5 4 5 4 4 2 3 1 1 1 1 2 3 5 8 8 14 19 20 16 14 20 20 20 19 19
14 17 17 15 15 12 10 10 9 8 8 8 7 8 7 6 5 4 4 4 3 2 1 2 3 1 1 2 2 4 6 6 8 16 18 18 15 17 23 21 21 20 20
17 15 14 13 11 11 11 11 11 10 9 7 7 6 7 6 5 4 5 3 2 1 1 2 3 4 2 3 2 5 7 6 8 8 13 13 15 22 23 22 21 20 21
15 14 13 10 12 10 8 12 11 10 9 8 7 7 6 6 8 6 3 2 1 0 1 2 3 4 5 5 7 6 8 9 8 9 2 5 9 9 10 15 17 21 21
13 11 13 13 12 7 18 18 12 9 8 8 7 5 5 6 5 4 3 3 3 1 2 3 3 5 7 5 5 7 8 8 8 1 7 12 9 9 7 6 18 23 25
12 12 13 14 12 10 18 18 16 7 7 6 6 6 4 3 2 2 2 4 4 5 6 4 4 4 5 6 9 9 9 9 9 9 10 12 5 9 7 9 21 25 26
10 10 13 12 11 10 18 17 15 7 7 6 6 4 4 3 1 3 3 1 2 2 3 4 2 4 5 8 7 8 6 6 7 5 5 7 2 9 7 8 23 21 19
11 12 11 11 10 9 16 15 11 7 7 5 5 4 3 3 3 1 2 2 3 5 5 5 7 13 16 16 13 3 4 4 6 3 3 6 4 12 9 8 7 12 17
12 10 11 10 7 8 14 13 9 5 6 4 4 3 5 2 4 7 4 1 4 4 2 3 5 8 9 8 12 4 3 2 2 5 3 4 3 5 9 3 2 9 8
Wind_Direction
178 168 169 161 163 141 132 111 103 97 90 89 77 81 69 61 68 56 45 37 67 82 88 87 86 76 74 69 63 60 54 43 35 30 29 22 19 13 10 10 7 2 4
176 174 169 175 178 151 130 127 121 110 95 99 86 76 71 61 69 59 45 38 53 68 75 78 73 76 71 66 58 49 46 41 37 29 26 18 15 11 8 4 359 0 358
183 178 176 176 162 133 121 108 101 99 97 89 87 79 76 71 69 63 51 43 32 52 66 67 68 64 59 58 54 48 44 41 31 22 18 14 15 9 5 2 359 356 356
166 179 166 163 137 134 132 128 123 102 98 98 94 77 82 78 73 65 61 52 44 33 52 69 66 59 53 49 47 45 38 32 26 20 14 12 12 7 3 2 359 356 355
173 171 161 150 146 140 140 136 122 121 118 107 103 92 86 84 80 77 66 59 54 42 31 60 62 58 53 46 41 37 31 29 25 15 10 10 6 3 3 0 354 353 355
173 159 145 150 148 136 131 122 123 102 125 123 106 90 80 80 78 78 82 78 71 65 49 49 38 34 51 45 35 29 29 23 19 13 9 4 2 0 358 356 355 354 351
160 152 143 144 143 147 150 142 122 124 104 126 109 90 73 75 78 79 79 84 80 70 62 58 53 41 31 40 28 30 25 21 15 10 5 1 358 355 354 355 353 352 348
147 146 149 150 148 134 133 153 145 134 102 156 112 106 145 116 82 71 63 82 82 90 85 74 64 60 39 19 32 27 19 17 13 8 3 358 354 354 352 348 349 346 345
116 129 135 142 140 138 154 155 159 135 145 63 108 123 154 153 122 36 40 49 86 91 96 98 77 69 48 28 24 15 20 16 12 8 2 354 349 350 343 342 345 342 344
94 97 94 104 104 110 123 128 120 110 133 129 94 45 56 96 130 152 109 264 175 127 111 89 87 74 60 36 24 15 19 12 11 5 356 348 346 343 339 334 340 335 331
97 92 106 99 88 97 99 108 99 96 103 102 103 129 67 65 69 129 157 182 135 123 111 114 122 93 54 39 324 356 13 6 5 355 347 342 342 336 333 329 330 328 340
104 101 100 96 96 104 101 97 87 84 93 90 88 74 88 118 168 132 125 138 167 151 128 122 102 69 31 1 358 15 5 358 354 346 343 338 335 331 325 332 330 334 334
124 116 110 108 100 102 94 95 88 79 72 86 87 80 83 84 84 93 147 135 157 152 154 126 94 38 360 359 351 33 2 351 342 340 338 335 328 325 332 331 323 334 334
122 118 111 106 105 104 95 93 93 94 97 82 83 87 88 66 97 192 166 150 122 128 164 150 163 38 16 43 39 25 354 342 337 339 337 329 326 328 328 325 336 333 325
119 112 110 107 105 103 106 105 100 97 88 98 96 95 91 73 66 58 59 54 120 171 187 194 211 82 46 51 22 7 342 338 335 332 329 324 325 327 326 333 330 325 325
121 115 110 106 105 102 102 99 92 93 109 114 110 105 91 75 69 56 57 52 45 92 154 215 190 44 41 28 7 6 345 342 320 323 320 320 325 323 324 326 322 323 322
118 116 116 112 108 100 96 99 113 123 112 112 104 104 89 74 69 60 61 56 57 45 60 329 3 39 125 15 356 357 329 314 317 319 318 318 318 317 323 321 318 315 316
116 113 109 108 105 100 110 115 117 114 122 113 107 101 94 92 80 66 63 63 61 48 33 273 293 332 271 333 302 310 314 316 316 315 318 319 311 310 320 312 312 311 311
101 106 107 108 113 122 122 114 110 110 101 99 102 110 115 105 94 89 81 69 54 37 347 288 303 346 312 302 272 305 311 298 303 310 314 311 302 303 311 309 306 303 307
107 103 105 112 120 127 115 111 108 102 96 94 97 101 100 100 109 98 77 53 43 319 345 333 296 288 283 302 295 307 315 308 304 300 302 295 296 303 302 301 299 300 303
109 115 115 124 110 111 114 117 117 113 114 111 104 102 104 120 99 89 114 152 150 39 276 280 282 301 302 324 315 316 303 304 301 285 280 280 289 288 285 288 290 296 289
111 126 122 111 105 108 124 121 116 117 120 121 119 108 91 79 84 81 35 18 130 75 343 313 303 302 316 310 320 316 306 314 313 174 319 298 289 281 266 260 279 281 293
118 117 109 104 105 115 124 120 116 114 115 104 106 109 118 111 110 91 67 75 44 1 347 330 298 310 324 332 313 313 305 296 288 304 310 295 301 274 262 268 279 285 293
104 101 95 99 110 118 119 120 112 97 93 87 92 112 125 120 146 148 154 176 196 322 294 288 1 335 312 314 311 303 319 299 296 277 274 274 280 284 281 269 274 281 292
103 100 101 102 103 108 121 120 112 105 105 113 116 127 134 88 357 21 194 274 295 285 301 337 336 324 319 319 313 352 318 4 307 285 284 274 298 304 289 269 247 270 295
103 101 93 82 91 111 119 121 110 107 112 119 99 77 138 144 339 323 114 116 284 302 36 344 319 309 313 307 318 315 310 255 259 318 264 283 315 334 317 246 241 300 279